When you browse on this site, cookies collect data to enhance your experience and personalize the content and advertising you see.
Visit our Privacy Policy to learn more. By continuing to use the site, you agree to this use of cookies and data.
  • Em Portugal
  • Lista de países
  • Para 7 dias
  • Temperatura da água
  • Mapa do tempo
  • Widgets de tempo
  • user-avatar
    Iniciar Sessão

    Previsão horária em Lepe

    Hoje, 20 Agosto, Terça-feira

    Tempo Temperatura Precipitação Vento Pressão Humidade
    00:00 +20°C° 0 mm 8 m/s 759 mmHg 50%
    01:00 +18°C° 0 mm 8 m/s 759 mmHg 54%
    02:00 +17°C° 0 mm 7 m/s 759 mmHg 58%
    03:00 +17°C° 0 mm 7 m/s 759 mmHg 62%
    04:00 +16°C° 0 mm 7 m/s 759 mmHg 69%
    05:00 +15°C° 0 mm 7 m/s 759 mmHg 75%
    06:00 +15°C° 0 mm 6 m/s 759 mmHg 81%
    07:00 +17°C° 0 mm 6 m/s 759 mmHg 69%
    08:00 +21°C° 0 mm 6 m/s 759 mmHg 57%
    09:00 +25°C° 0 mm 5 m/s 759 mmHg 44%
    10:00 +28°C° 0 mm 4 m/s 759 mmHg 34%
    11:00 +33°C° 0 mm 4 m/s 759 mmHg 24%
    12:00 +36°C° 0 mm 3 m/s 759 mmHg 13%
    13:00 +37°C° 0 mm 3 m/s 759 mmHg 14%
    14:00 +37°C° 0 mm 4 m/s 758 mmHg 15%
    15:00 +39°C° 0 mm 5 m/s 758 mmHg 15%
    16:00 +36°C° 0 mm 5 m/s 758 mmHg 20%
    17:00 +34°C° 0 mm 5 m/s 757 mmHg 25%
    18:00 +32°C° 0 mm 5 m/s 757 mmHg 30%
    19:00 +29°C° 0 mm 4 m/s 757 mmHg 38%
    20:00 +26°C° 0 mm 3 m/s 758 mmHg 46%
    21:00 +23°C° 0 mm 2 m/s 758 mmHg 54%
    22:00 +23°C° 0 mm 2 m/s 758 mmHg 56%
    23:00 +21°C° 0 mm 3 m/s 759 mmHg 58%

    Amanhã, 21 Agosto, Quarta-feira

    Tempo Temperatura Precipitação Vento Pressão Humidade
    00:00 +21°C° 0 mm 3 m/s 759 mmHg 61%
    01:00 +20°C° 0 mm 3 m/s 759 mmHg 65%
    02:00 +19°C° 0 mm 2 m/s 759 mmHg 69%
    03:00 +19°C° 0 mm 2 m/s 759 mmHg 73%
    04:00 +19°C° 0 mm 2 m/s 759 mmHg 74%
    05:00 +19°C° 0 mm 2 m/s 759 mmHg 75%
    06:00 +19°C° 0 mm 2 m/s 759 mmHg 76%
    07:00 +23°C° 0 mm 2 m/s 759 mmHg 71%
    08:00 +26°C° 0 mm 2 m/s 759 mmHg 65%
    09:00 +29°C° 0 mm 2 m/s 759 mmHg 60%
    10:00 +31°C° 0 mm 3 m/s 759 mmHg 53%
    11:00 +34°C° 0 mm 3 m/s 759 mmHg 47%
    12:00 +35°C° 0 mm 3 m/s 759 mmHg 41%
    13:00 +36°C° 0 mm 3 m/s 758 mmHg 38%
    14:00 +37°C° 0 mm 4 m/s 758 mmHg 34%
    15:00 +37°C° 0 mm 4 m/s 758 mmHg 31%
    16:00 +37°C° 0 mm 5 m/s 758 mmHg 33%
    17:00 +36°C° 0 mm 5 m/s 757 mmHg 34%
    18:00 +35°C° 0 mm 5 m/s 757 mmHg 36%
    19:00 +33°C° 0 mm 4 m/s 758 mmHg 40%
    20:00 +29°C° 0 mm 4 m/s 758 mmHg 45%
    21:00 +27°C° 0 mm 3 m/s 759 mmHg 49%
    22:00 +25°C° 0 mm 3 m/s 759 mmHg 53%
    23:00 +24°C° 0 mm 3 m/s 759 mmHg 58%

    Depois de amanhã, 22 Agosto, Quinta-feira

    Tempo Temperatura Precipitação Vento Pressão Humidade
    00:00 +23°C° 0 mm 2 m/s 759 mmHg 62%
    01:00 +21°C° 0 mm 2 m/s 759 mmHg 65%
    02:00 +21°C° 0 mm 2 m/s 759 mmHg 67%
    03:00 +20°C° 0 mm 2 m/s 758 mmHg 70%
    04:00 +20°C° 0 mm 1 m/s 758 mmHg 71%
    05:00 +20°C° 0 mm 1 m/s 759 mmHg 73%
    06:00 +20°C° 0 mm 1 m/s 759 mmHg 75%
    07:00 +23°C° 0 mm 1 m/s 759 mmHg 64%
    08:00 +26°C° 0 mm 1 m/s 759 mmHg 54%
    09:00 +29°C° 0 mm 1 m/s 759 mmHg 43%
    10:00 +31°C° 0 mm 2 m/s 759 mmHg 39%
    11:00 +34°C° 0 mm 2 m/s 759 mmHg 35%
    12:00 +36°C° 0 mm 3 m/s 758 mmHg 31%
    13:00 +37°C° 0 mm 3 m/s 758 mmHg 31%
    14:00 +37°C° 0 mm 4 m/s 757 mmHg 30%
    15:00 +38°C° 0 mm 4 m/s 757 mmHg 29%
    16:00 +36°C° 0 mm 5 m/s 757 mmHg 33%
    17:00 +35°C° 0 mm 5 m/s 757 mmHg 38%
    18:00 +33°C° 0 mm 5 m/s 757 mmHg 42%
    19:00 +30°C° 0 mm 5 m/s 757 mmHg 48%
    20:00 +28°C° 0 mm 4 m/s 758 mmHg 54%
    21:00 +26°C° 0 mm 3 m/s 758 mmHg 60%
    22:00 +26°C° 0 mm 3 m/s 758 mmHg 61%
    23:00 +25°C° 0 mm 3 m/s 758 mmHg 61%

    23 Agosto, Sexta-feira

    Tempo Temperatura Precipitação Vento Pressão Humidade
    00:00 +24°C° 0 mm 3 m/s 758 mmHg 62%
    01:00 +23°C° 0 mm 2 m/s 758 mmHg 64%
    02:00 +23°C° 0 mm 2 m/s 758 mmHg 66%
    03:00 +21°C° 0 mm 2 m/s 758 mmHg 68%
    04:00 +21°C° 0 mm 2 m/s 758 mmHg 68%
    05:00 +21°C° 0 mm 2 m/s 758 mmHg 67%
    06:00 +20°C° 0 mm 2 m/s 758 mmHg 67%
    07:00 +24°C° 0 mm 2 m/s 758 mmHg 57%
    08:00 +27°C° 0 mm 3 m/s 759 mmHg 47%
    09:00 +30°C° 0 mm 3 m/s 759 mmHg 38%
    10:00 +33°C° 0 mm 3 m/s 758 mmHg 33%
    11:00 +35°C° 0 mm 2 m/s 758 mmHg 28%
    12:00 +38°C° 0 mm 2 m/s 758 mmHg 23%
    13:00 +38°C° 0 mm 3 m/s 758 mmHg 22%
    14:00 +38°C° 0 mm 3 m/s 757 mmHg 21%
    15:00 +40°C° 0 mm 4 m/s 757 mmHg 20%
    16:00 +37°C° 0 mm 4 m/s 757 mmHg 26%
    17:00 +35°C° 0 mm 5 m/s 757 mmHg 31%
    18:00 +33°C° 0 mm 5 m/s 756 mmHg 36%
    19:00 +30°C° 0 mm 4 m/s 757 mmHg 42%
    20:00 +28°C° 0 mm 3 m/s 758 mmHg 49%
    21:00 +25°C° 0 mm 2 m/s 758 mmHg 55%
    22:00 +24°C° 0 mm 2 m/s 758 mmHg 56%
    23:00 +23°C° 0 mm 2 m/s 758 mmHg 58%

    24 Agosto, Sábado

    Tempo Temperatura Precipitação Vento Pressão Humidade
    00:00 +22°C° 0 mm 3 m/s 758 mmHg 60%
    01:00 +21°C° 0 mm 2 m/s 758 mmHg 61%
    02:00 +21°C° 0 mm 2 m/s 758 mmHg 62%
    03:00 +20°C° 0 mm 2 m/s 758 mmHg 64%
    04:00 +20°C° 0 mm 2 m/s 758 mmHg 65%
    05:00 +20°C° 0 mm 3 m/s 758 mmHg 65%
    06:00 +19°C° 0 mm 3 m/s 758 mmHg 66%
    07:00 +24°C° 0 mm 3 m/s 758 mmHg 56%
    08:00 +27°C° 0 mm 2 m/s 758 mmHg 46%
    09:00 +30°C° 0 mm 2 m/s 759 mmHg 35%
    10:00 +32°C° 0 mm 2 m/s 758 mmHg 31%
    11:00 +36°C° 0 mm 2 m/s 758 mmHg 26%
    12:00 +38°C° 0 mm 2 m/s 758 mmHg 22%
    13:00 +39°C° 0 mm 3 m/s 757 mmHg 21%
    14:00 +40°C° 0 mm 4 m/s 757 mmHg 21%
    15:00 +40°C° 0 mm 4 m/s 757 mmHg 20%
    16:00 +37°C° 0 mm 5 m/s 756 mmHg 23%
    17:00 +36°C° 0 mm 5 m/s 756 mmHg 25%
    18:00 +35°C° 0 mm 6 m/s 756 mmHg 28%
    19:00 +32°C° 0 mm 5 m/s 756 mmHg 33%
    20:00 +29°C° 0 mm 4 m/s 757 mmHg 38%
    21:00 +27°C° 0 mm 3 m/s 757 mmHg 43%
    22:00 +26°C° 0 mm 3 m/s 757 mmHg 46%
    23:00 +25°C° 0 mm 3 m/s 757 mmHg 49%

    25 Agosto, Domingo

    Tempo Temperatura Precipitação Vento Pressão Humidade
    00:00 +24°C° 0 mm 2 m/s 758 mmHg 52%
    01:00 +23°C° 0 mm 2 m/s 757 mmHg 57%
    02:00 +21°C° 0 mm 3 m/s 757 mmHg 61%
    03:00 +20°C° 0 mm 3 m/s 757 mmHg 66%
    04:00 +19°C° 0 mm 2 m/s 757 mmHg 67%
    05:00 +19°C° 0 mm 2 m/s 757 mmHg 68%
    06:00 +19°C° 0 mm 2 m/s 757 mmHg 69%
    07:00 +23°C° 0 mm 2 m/s 757 mmHg 58%
    08:00 +26°C° 0 mm 2 m/s 757 mmHg 48%
    09:00 +29°C° 0 mm 2 m/s 757 mmHg 37%
    10:00 +31°C° 0 mm 2 m/s 757 mmHg 31%
    11:00 +34°C° 0 mm 2 m/s 757 mmHg 26%
    12:00 +36°C° 0 mm 3 m/s 756 mmHg 20%
    13:00 +37°C° 0 mm 3 m/s 756 mmHg 18%
    14:00 +38°C° 0 mm 4 m/s 756 mmHg 17%
    15:00 +40°C° 0 mm 4 m/s 755 mmHg 15%
    16:00 +39°C° 0 mm 5 m/s 755 mmHg 18%
    17:00 +37°C° 0 mm 5 m/s 755 mmHg 20%
    18:00 +35°C° 0 mm 5 m/s 755 mmHg 22%
    19:00 +33°C° 0 mm 5 m/s 755 mmHg 28%
    20:00 +29°C° 0 mm 4 m/s 756 mmHg 34%
    21:00 +27°C° 0 mm 3 m/s 756 mmHg 40%
    22:00 +25°C° 0 mm 3 m/s 757 mmHg 47%
    23:00 +24°C° 0 mm 3 m/s 757 mmHg 54%
    Mostrar mais